WJA468 CYEG-CYYZ

Flight info

Callsign WJA468
Flight time N/A
Altitude 34000
Route CYEG OVUTO GABET ALOKA AMENU VESRU FELTN SSM DARID BOXUM DUVOS DEBGO ERBUS MODOL SELAP DUNOP CYYZ
Aircraft B737/M-V/N

Departure

Time 2026-04-29 18:50
Airport Edmonton International Airport (CYEG)

Arrival

Time N/A
Airport Toronto Pearson International Airport (CYYZ)
Time Latitude Longitude Altitude Speed Heading
2026-04-29 18:50 53.45692 -113.11004 12166 ft 411 kts 104°
2026-04-29 18:50 53.44788 -113.05702 12905 ft 414 kts 101°
2026-04-29 18:51 53.44199 -113.00949 13557 ft 415 kts 97°
2026-04-29 18:51 53.43700 -112.96167 14171 ft 418 kts 97°
2026-04-29 18:51 53.43290 -112.91327 14684 ft 420 kts 93°
2026-04-29 18:51 53.43011 -112.86416 15218 ft 423 kts 92°
2026-04-29 18:52 53.42805 -112.81506 15772 ft 424 kts 90°
2026-04-29 18:52 53.42645 -112.76515 16295 ft 427 kts 89°
2026-04-29 18:52 53.42495 -112.71533 16814 ft 430 kts 89°
2026-04-29 18:52 53.42347 -112.66512 17325 ft 433 kts 89°
2026-04-29 18:53 53.42196 -112.61438 17818 ft 436 kts 89°
2026-04-29 18:53 53.42042 -112.56343 18294 ft 439 kts 89°
2026-04-29 18:53 53.41886 -112.51244 18731 ft 442 kts 89°
2026-04-29 18:53 53.41725 -112.46098 19142 ft 444 kts 89°
2026-04-29 18:54 53.41561 -112.40924 19551 ft 446 kts 89°
2026-04-29 18:54 53.41392 -112.35721 19984 ft 448 kts 89°
2026-04-29 18:54 53.41220 -112.30488 20392 ft 450 kts 89°
2026-04-29 18:54 53.41045 -112.25237 20779 ft 452 kts 89°
2026-04-29 18:55 53.40867 -112.19963 21154 ft 454 kts 89°
2026-04-29 18:55 53.40686 -112.14657 21527 ft 456 kts 89°
2026-04-29 18:55 53.40504 -112.09360 21901 ft 458 kts 89°
2026-04-29 18:55 53.40319 -112.04002 22241 ft 460 kts 89°
2026-04-29 18:56 53.40135 -111.98693 22587 ft 463 kts 89°
2026-04-29 18:56 53.39947 -111.93319 22911 ft 465 kts 89°
2026-04-29 18:56 53.39757 -111.87916 23234 ft 467 kts 89°
2026-04-29 18:56 53.39556 -111.82456 23501 ft 470 kts 89°
2026-04-29 18:57 53.39308 -111.76911 23743 ft 473 kts 90°
2026-04-29 18:57 53.38991 -111.71496 23889 ft 477 kts 92°
2026-04-29 18:57 53.38571 -111.65916 24002 ft 480 kts 93°
2026-04-29 18:57 53.38216 -111.60381 24280 ft 477 kts 91°
2026-04-29 18:58 53.37818 -111.54847 24576 ft 476 kts 92°
2026-04-29 18:58 53.37465 -111.49326 24760 ft 477 kts 91°
2026-04-29 18:58 53.37140 -111.43777 24886 ft 479 kts 91°
2026-04-29 18:58 53.36823 -111.38212 25030 ft 480 kts 91°
2026-04-29 18:59 53.36513 -111.32659 25189 ft 481 kts 91°
2026-04-29 18:59 53.36207 -111.27133 25331 ft 481 kts 91°
2026-04-29 18:59 53.35901 -111.21553 25467 ft 482 kts 91°
2026-04-29 18:59 53.35595 -111.15949 25572 ft 483 kts 90°
2026-04-29 19:00 53.35292 -111.10389 25677 ft 484 kts 91°
2026-04-29 19:00 53.34961 -111.04721 25764 ft 485 kts 91°
2026-04-29 19:00 53.34616 -110.99101 25860 ft 486 kts 91°
2026-04-29 19:00 53.34265 -110.93465 25946 ft 486 kts 91°
2026-04-29 19:01 53.33910 -110.87835 26014 ft 487 kts 91°
2026-04-29 19:01 53.33558 -110.82260 26041 ft 488 kts 91°
2026-04-29 19:01 53.33196 -110.76544 26084 ft 489 kts 91°
2026-04-29 19:01 53.32841 -110.70921 26127 ft 489 kts 91°
2026-04-29 19:02 53.32487 -110.65315 26215 ft 488 kts 91°
2026-04-29 19:02 53.32246 -110.61490 26278 ft 488 kts 91°
2026-04-29 19:02 53.31777 -110.54030 26358 ft 488 kts 91°
2026-04-29 19:02 53.31424 -110.48399 26405 ft 488 kts 91°
2026-04-29 19:03 53.31070 -110.42738 26464 ft 488 kts 91°
2026-04-29 19:03 53.30716 -110.37084 26544 ft 488 kts 91°
2026-04-29 19:03 53.30364 -110.31442 26620 ft 487 kts 91°
2026-04-29 19:03 53.30011 -110.25792 26679 ft 487 kts 91°
2026-04-29 19:04 53.29661 -110.20194 26748 ft 487 kts 91°
2026-04-29 19:04 53.29307 -110.14549 26981 ft 483 kts 91°
2026-04-29 19:04 53.28959 -110.09051 27198 ft 481 kts 91°
2026-04-29 19:04 53.28604 -110.03479 27423 ft 479 kts 91°
2026-04-29 19:05 53.28252 -109.97969 27655 ft 477 kts 91°
2026-04-29 19:05 53.27899 -109.92493 27874 ft 476 kts 91°
2026-04-29 19:05 53.27541 -109.86983 28119 ft 475 kts 91°
2026-04-29 19:05 53.27183 -109.81513 28356 ft 474 kts 91°
2026-04-29 19:06 53.26820 -109.76004 28596 ft 473 kts 91°
2026-04-29 19:06 53.26455 -109.70537 28846 ft 472 kts 91°
2026-04-29 19:06 53.25724 -109.59710 29341 ft 471 kts 91°
2026-04-29 19:07 53.25349 -109.54211 29592 ft 470 kts 90°
2026-04-29 19:07 53.24606 -109.43448 30096 ft 469 kts 90°
2026-04-29 19:07 53.24227 -109.37984 30347 ft 469 kts 90°
2026-04-29 19:08 53.23854 -109.32634 30564 ft 468 kts 90°
2026-04-29 19:08 53.23474 -109.27177 30769 ft 468 kts 90°
2026-04-29 19:08 53.23093 -109.21852 30977 ft 468 kts 91°
2026-04-29 19:08 53.22652 -109.16461 31194 ft 468 kts 92°
2026-04-29 19:09 53.22187 -109.11070 31401 ft 468 kts 92°
2026-04-29 19:09 53.21716 -109.05695 31631 ft 468 kts 92°
2026-04-29 19:09 53.21242 -109.00321 31845 ft 468 kts 92°
2026-04-29 19:09 53.20769 -108.94971 32057 ft 467 kts 92°
2026-04-29 19:10 53.20297 -108.89625 32287 ft 467 kts 92°
2026-04-29 19:10 53.19822 -108.84235 32501 ft 467 kts 92°
2026-04-29 19:10 53.19353 -108.78898 32733 ft 466 kts 92°
2026-04-29 19:10 53.18889 -108.73598 32962 ft 466 kts 92°
2026-04-29 19:11 53.18417 -108.68190 33188 ft 466 kts 92°
2026-04-29 19:11 53.17957 -108.62899 33419 ft 465 kts 92°
2026-04-29 19:11 53.17489 -108.57506 33648 ft 465 kts 92°
2026-04-29 19:11 53.17033 -108.52224 33887 ft 465 kts 92°
2026-04-29 19:12 53.16574 -108.46899 34124 ft 464 kts 92°
2026-04-29 19:12 53.16120 -108.41602 34283 ft 466 kts 92°
2026-04-29 19:12 53.15664 -108.36243 34259 ft 471 kts 92°
2026-04-29 19:13 53.14753 -108.25344 34274 ft 477 kts 92°
2026-04-29 19:13 53.13854 -108.14349 34271 ft 479 kts 92°
2026-04-29 19:14 53.13117 -108.05208 34260 ft 479 kts 92°
2026-04-29 19:14 53.12100 -107.92417 34270 ft 479 kts 92°
2026-04-29 19:15 53.11377 -107.83167 34267 ft 479 kts 92°
2026-04-29 19:15 53.10528 -107.72142 34262 ft 480 kts 92°
2026-04-29 19:16 53.09701 -107.61219 34256 ft 480 kts 91°
2026-04-29 19:16 53.08879 -107.50164 34260 ft 481 kts 91°
2026-04-29 19:17 53.08072 -107.39098 34248 ft 481 kts 91°
2026-04-29 19:17 53.07282 -107.28057 34249 ft 481 kts 91°
2026-04-29 19:18 53.06506 -107.16995 34253 ft 482 kts 91°
2026-04-29 19:18 53.05759 -107.06163 34253 ft 482 kts 91°
2026-04-29 19:19 53.05037 -106.95506 34257 ft 482 kts 91°
2026-04-29 19:19 53.04321 -106.84708 34257 ft 482 kts 91°
2026-04-29 19:20 53.03636 -106.74184 34263 ft 482 kts 91°
2026-04-29 19:20 53.02980 -106.63894 34265 ft 483 kts 91°
2026-04-29 19:21 53.02305 -106.53064 34259 ft 483 kts 91°
2026-04-29 19:21 53.01661 -106.42612 34259 ft 484 kts 92°
2026-04-29 19:22 53.00171 -106.32240 34265 ft 491 kts 102°
2026-04-29 19:22 52.97956 -106.21648 34247 ft 496 kts 110°
2026-04-29 19:23 52.94503 -106.11971 34254 ft 501 kts 120°
2026-04-29 19:23 52.90886 -106.02604 34265 ft 500 kts 118°
2026-04-29 19:24 52.87311 -105.92886 34267 ft 500 kts 117°
2026-04-29 19:24 52.83726 -105.83047 34271 ft 500 kts 117°
2026-04-29 19:25 52.80385 -105.73047 34276 ft 498 kts 114°
2026-04-29 19:25 52.77537 -105.62675 34283 ft 495 kts 108°
2026-04-29 19:26 52.75018 -105.52116 34274 ft 495 kts 107°
2026-04-29 19:26 52.72567 -105.41642 34272 ft 495 kts 107°
2026-04-29 19:27 52.70136 -105.31352 34265 ft 495 kts 108°
2026-04-29 19:27 52.67613 -105.20805 34274 ft 495 kts 108°
2026-04-29 19:28 52.65092 -105.10260 34273 ft 495 kts 108°
2026-04-29 19:28 52.62592 -104.99762 34255 ft 495 kts 108°
2026-04-29 19:29 52.60176 -104.89560 34263 ft 495 kts 108°
2026-04-29 19:29 52.57703 -104.79054 34259 ft 495 kts 108°
2026-04-29 19:30 52.55272 -104.68858 34257 ft 497 kts 111°
2026-04-29 19:30 52.52075 -104.58768 34253 ft 499 kts 116°
2026-04-29 19:31 52.48785 -104.49018 34260 ft 499 kts 116°
2026-04-29 19:31 52.45464 -104.39115 34261 ft 498 kts 115°
2026-04-29 19:32 52.42440 -104.29151 34256 ft 497 kts 112°
2026-04-29 19:32 52.39645 -104.19517 34252 ft 497 kts 112°
2026-04-29 19:33 52.36755 -104.09451 34252 ft 497 kts 112°
2026-04-29 19:33 52.33846 -103.99251 34250 ft 497 kts 112°
2026-04-29 19:34 52.31036 -103.89345 34248 ft 496 kts 112°
2026-04-29 19:34 52.28224 -103.79380 34243 ft 496 kts 112°
2026-04-29 19:35 52.25388 -103.69286 34240 ft 496 kts 112°
2026-04-29 19:35 52.22668 -103.59561 34234 ft 496 kts 112°
2026-04-29 19:36 52.19910 -103.49656 34229 ft 496 kts 112°
2026-04-29 19:36 52.17153 -103.39703 34234 ft 495 kts 111°
2026-04-29 19:37 52.14324 -103.29445 34226 ft 495 kts 111°
2026-04-29 19:37 52.11531 -103.19268 34225 ft 495 kts 111°
2026-04-29 19:38 52.08762 -103.09124 34222 ft 495 kts 111°
2026-04-29 19:38 52.06063 -102.99192 34220 ft 495 kts 111°
2026-04-29 19:39 52.03321 -102.89047 34223 ft 495 kts 111°
2026-04-29 19:39 52.00366 -102.79208 34219 ft 496 kts 115°
2026-04-29 19:40 51.97154 -102.69345 34214 ft 496 kts 116°
2026-04-29 19:40 51.93927 -102.59510 34220 ft 496 kts 116°
2026-04-29 19:41 51.90709 -102.49701 34219 ft 496 kts 116°
2026-04-29 19:41 51.87617 -102.40256 34219 ft 496 kts 116°
2026-04-29 19:42 51.84505 -102.30723 34224 ft 495 kts 116°
2026-04-29 19:42 51.81305 -102.20886 34226 ft 495 kts 116°
2026-04-29 19:43 51.78270 -102.11529 34227 ft 495 kts 116°
2026-04-29 19:43 51.75115 -102.01771 34225 ft 495 kts 116°
2026-04-29 19:44 51.72131 -101.92514 34231 ft 495 kts 115°
2026-04-29 19:44 51.69042 -101.82904 34234 ft 495 kts 115°
2026-04-29 19:45 51.66168 -101.73935 34230 ft 495 kts 115°
2026-04-29 19:45 51.63100 -101.64334 34227 ft 495 kts 115°
2026-04-29 19:46 51.60094 -101.54904 34236 ft 495 kts 115°
2026-04-29 19:46 51.57756 -101.47552 34221 ft 495 kts 115°
2026-04-29 19:47 51.54988 -101.38826 34230 ft 495 kts 115°
2026-04-29 19:47 51.52081 -101.29641 34211 ft 495 kts 115°
2026-04-29 19:48 51.49105 -101.20215 34216 ft 495 kts 115°
2026-04-29 19:48 51.46906 -101.13259 34233 ft 495 kts 115°
2026-04-29 19:49 51.43806 -101.03664 34221 ft 495 kts 116°
2026-04-29 19:49 51.40607 -100.93829 34215 ft 495 kts 116°
2026-04-29 19:50 51.37460 -100.84158 34230 ft 495 kts 116°
2026-04-29 19:50 51.34283 -100.74384 34229 ft 495 kts 116°
2026-04-29 19:51 51.31178 -100.64813 34232 ft 495 kts 115°
2026-04-29 19:51 51.28004 -100.55014 34232 ft 495 kts 116°
2026-04-29 19:52 51.24727 -100.45373 34218 ft 492 kts 117°
2026-04-29 19:52 51.21421 -100.35814 34218 ft 493 kts 117°
2026-04-29 19:53 51.18118 -100.26285 34205 ft 494 kts 117°
2026-04-29 19:53 51.14821 -100.16757 34195 ft 495 kts 117°
2026-04-29 19:54 51.09848 -100.02341 34187 ft 495 kts 117°
2026-04-29 19:54 51.06627 -99.92968 34191 ft 494 kts 117°
2026-04-29 19:55 51.03357 -99.83418 34202 ft 494 kts 117°
2026-04-29 19:55 51.00106 -99.73897 34215 ft 494 kts 116°
2026-04-29 19:56 50.98665 -99.68867 34201 ft 491 kts 105°
2026-04-29 19:56 50.97910 -99.63660 34244 ft 488 kts 97°
2026-04-29 19:56 50.96948 -99.53110 34241 ft 488 kts 95°
2026-04-29 19:57 50.96239 -99.44257 34234 ft 488 kts 95°
2026-04-29 19:57 50.95270 -99.31767 34236 ft 488 kts 95°
2026-04-29 19:58 50.94465 -99.21148 34236 ft 488 kts 94°
2026-04-29 19:58 50.93667 -99.10458 34235 ft 488 kts 94°
2026-04-29 19:59 50.92874 -98.99719 34241 ft 487 kts 94°